EHI
0 0 0 0 0 0 0 0 0 0 0 0 0 0 0 0 0 0 0 0 0 0 0 0 0 0 0 0 1 3 15 38 68 87 83 57 26 8 4 2 1 0 0 0
0 0 0 0 0 0 0 0 0 0 0 0 0 0 0 0 0 0 0 0 0 0 0 0 0 0 0 1 2 4 14 34 58 75 75 57 32 15 9 6 3 1 0 0
0 0 0 0 0 0 0 0 0 0 0 0 0 0 0 0 0 0 0 0 0 0 0 0 0 0 0 1 2 5 11 22 36 48 51 45 35 22 13 9 5 2 1 1
0 0 0 0 0 0 0 0 0 0 0 0 0 0 0 0 0 0 0 0 0 0 0 0 0 0 0 1 1 3 5 8 12 19 22 23 22 17 9 6 5 3 3 5
0 0 0 0 0 0 0 0 0 0 0 0 0 0 0 0 0 0 0 0 0 0 0 0 0 0 0 0 0 1 1 1 1 3 5 6 7 5 2 2 3 3 6 9
0 0 0 0 0 0 0 0 0 0 0 0 0 0 0 0 0 0 0 0 0 0 0 0 0 0 0 0 0 0 0 0 0 0 1 1 1 0 0 0 1 3 6 10
0 0 0 0 0 0 0 0 0 0 0 0 0 0 0 0 0 0 0 0 0 0 0 0 0 0 0 0 0 0 0 0 0 0 0 0 0 0 0 0 0 1 4 6
0 0 0 0 0 0 0 0 0 0 0 0 0 0 0 0 0 0 0 0 0 0 0 0 0 0 0 0 0 1 1 1 1 0 0 0 0 0 0 0 0 0 1 2
0 0 0 0 0 0 0 0 0 0 0 0 0 0 0 0 0 0 0 0 0 0 0 0 0 0 0 1 2 3 3 4 2 1 0 0 0 0 0 0 0 0 0 0
0 0 0 0 0 0 0 0 0 0 0 0 0 0 0 0 0 0 0 0 0 0 0 0 0 0 1 5 12 15 13 9 6 2 0 0 0 0 0 0 0 0 0 0
0 0 0 0 0 0 0 0 0 0 0 0 0 0 0 0 0 0 0 0 0 0 0 0 0 0 4 13 27 34 29 22 14 6 1 0 0 0 0 0 0 0 0 0
0 0 0 0 0 0 0 0 0 0 0 0 0 0 0 0 0 0 0 0 0 0 0 0 0 1 5 19 38 48 43 33 24 14 5 1 0 0 0 0 0 0 0 0
0 0 0 0 0 0 0 0 0 0 0 0 0 0 0 0 0 0 0 0 0 0 0 0 0 0 4 18 40 51 48 39 30 22 12 6 2 0 0 0 0 0 0 0
0 0 0 0 0 0 0 0 0 0 0 0 0 0 0 0 0 0 0 0 0 0 0 0 0 0 2 14 34 49 50 43 35 27 19 11 5 1 0 0 0 0 0 0
0 0 0 0 0 0 0 0 0 0 0 0 0 0 0 0 0 0 0 0 0 0 0 0 0 0 1 10 29 48 54 45 36 31 26 21 14 8 3 1 0 0 0 0
0 0 0 0 0 0 0 0 0 0 0 0 0 0 0 0 0 0 0 0 0 0 0 0 0 1 4 14 33 51 54 45 39 42 46 41 32 22 11 3 0 0 0 0
0 0 0 0 0 0 0 0 0 0 0 0 0 0 0 0 0 0 0 0 0 0 0 0 1 5 12 25 39 49 51 48 48 58 67 62 49 35 20 8 3 1 0 0
0 0 0 0 0 0 0 0 0 0 0 0 0 0 0 0 0 0 0 0 0 0 0 0 2 8 16 24 31 36 40 41 45 56 64 61 50 39 27 17 10 5 2 1
0 0 0 0 0 0 0 0 0 0 0 0 0 0 0 0 0 0 0 0 0 0 0 0 3 7 11 12 14 17 20 22 26 31 36 36 33 30 25 20 17 10 5 4
0 0 0 0 0 0 0 0 0 0 0 0 0 0 0 0 0 0 0 0 0 0 0 0 2 4 4 3 3 4 5 6 7 9 11 11 12 15 16 15 15 13 9 7
0 0 0 0 0 0 0 0 0 0 0 0 0 0 0 0 0 0 0 0 0 0 0 0 1 1 1 1 1 0 1 1 1 1 2 1 2 4 7 8 9 9 9 9
0 0 0 0 0 0 0 0 0 0 0 0 0 0 0 0 0 0 0 0 0 0 0 0 0 0 0 0 0 0 0 0 0 0 0 0 0 1 2 3 3 3 4 6
0 0 0 0 0 0 0 0 0 0 0 0 0 0 0 0 0 0 0 0 0 0 0 0 0 0 0 0 0 0 0 0 0 0 0 0 0 0 0 1 1 0 1 1
0 0 0 0 0 0 0 0 0 0 0 0 0 0 0 0 0 0 0 0 0 0 0 0 0 0 0 0 0 0 0 0 0 0 0 0 0 0 0 0 0 0 0 0
0 0 0 0 0 0 0 0 0 0 0 0 0 0 0 0 0 0 0 0 0 0 0 0 0 0 0 0 0 0 0 0 0 0 0 0 0 0 0 0 0 0 0 0
0 0 0 0 0 0 0 0 0 0 0 0 0 0 0 0 0 0 0 0 0 0 0 0 0 0 0 0 0 0 0 0 0 0 0 0 0 0 0 0 0 0 0 0
Wind_Speed
1 3 3 2 3 6 7 8 9 6 3 7 10 11 10 10 9 11 12 13 14 12 7 6 6 5 5 5 6 7 8 9 9 8 8 7 7 7 7 7 9 10 10 10
2 4 3 4 3 4 6 9 10 7 4 8 11 13 12 12 13 12 11 11 12 10 9 8 7 5 4 3 2 4 6 8 9 8 7 6 6 6 6 6 8 10 11 11
4 2 2 4 4 6 7 8 9 10 10 9 11 15 13 11 11 10 10 9 8 9 10 10 8 6 5 4 4 3 4 6 8 8 6 4 4 4 5 7 7 9 11 11
3 2 4 6 7 7 9 6 7 8 10 8 7 12 12 12 13 12 11 9 8 8 10 9 8 6 5 5 4 5 5 6 7 8 8 8 6 6 7 6 6 9 11 11
3 3 5 6 6 6 5 3 4 7 9 11 11 12 10 8 10 7 5 5 7 10 11 10 8 6 5 6 5 5 6 6 6 7 6 6 6 4 4 4 6 7 8 10
6 5 6 6 4 6 5 3 6 8 8 11 10 10 8 3 5 7 5 2 6 10 11 10 8 7 6 6 6 5 6 6 6 6 6 6 5 5 5 6 6 5 5 6
6 5 5 6 6 8 8 7 5 6 6 6 1 6 6 5 6 8 7 2 7 11 11 10 9 8 7 7 6 6 6 6 6 6 6 6 5 6 6 6 6 5 5 5
7 5 3 4 5 5 8 10 8 5 5 3 4 6 3 4 5 6 3 2 8 10 10 9 9 9 8 8 8 8 7 7 7 6 6 5 6 4 4 5 5 5 4 5
7 6 1 3 6 8 7 8 7 11 11 8 7 5 6 3 2 2 2 3 7 9 9 9 9 9 9 9 9 9 9 8 7 7 6 5 4 5 5 5 5 4 4 4
7 10 8 5 5 6 8 5 5 7 7 10 7 7 5 2 5 4 3 1 3 6 8 9 9 9 10 9 10 10 9 8 8 7 6 4 5 5 4 4 5 5 5 5
7 9 9 7 5 5 5 6 7 6 6 7 5 2 3 4 6 7 7 5 4 4 6 7 8 9 9 10 10 11 10 10 9 8 7 7 6 6 6 5 5 5 5 6
5 6 9 9 3 3 5 5 6 8 8 6 5 3 5 4 6 8 10 9 7 6 5 5 6 8 10 11 11 11 11 11 9 8 8 7 6 6 6 6 6 6 6 6
7 7 8 5 3 1 1 2 5 7 6 6 6 5 4 6 10 13 14 14 11 9 8 7 6 7 9 11 11 12 11 11 10 10 9 8 8 7 7 6 6 7 7 7
5 7 7 7 8 8 9 7 7 7 6 7 7 8 10 13 16 17 17 16 15 12 10 9 7 7 7 10 11 11 10 10 9 9 9 8 8 7 7 7 7 8 8 8
6 8 9 10 11 11 12 11 10 11 10 8 8 10 11 15 18 19 18 17 14 13 11 9 7 6 6 8 9 9 9 9 9 9 8 8 7 7 7 7 7 8 8 8
7 8 12 13 10 11 13 10 8 7 5 5 7 7 14 19 17 16 15 12 11 10 9 7 5 3 4 6 7 7 7 7 8 8 7 6 6 6 7 7 8 8 8 8
9 10 12 12 11 12 4 7 6 11 12 9 9 13 19 20 19 15 14 11 8 7 6 3 2 3 3 5 6 6 5 5 6 6 5 6 7 7 7 7 7 7 8 9
10 11 7 8 9 5 8 12 8 8 14 15 13 15 17 19 15 8 14 14 11 8 6 6 7 8 7 7 6 6 5 3 2 2 3 5 5 6 7 7 8 8 8 7
6 6 5 5 6 4 8 14 15 6 7 18 19 20 22 23 7 10 19 17 12 9 8 8 8 9 10 9 8 7 7 5 4 2 1 2 4 6 7 8 8 8 8 7
1 3 4 4 5 2 10 23 22 7 2 20 21 21 22 22 13 12 19 15 9 8 7 7 8 10 10 9 8 9 8 7 6 5 3 2 1 4 6 7 7 7 7 8
10 7 6 6 4 5 13 24 16 5 10 20 20 20 19 16 13 16 16 8 5 6 6 6 7 8 8 8 8 9 9 9 7 6 5 4 2 1 3 4 5 6 7 7
9 8 7 6 6 5 13 15 10 10 15 18 19 19 19 18 18 15 11 4 2 3 4 4 6 7 7 7 8 9 8 6 6 6 6 6 5 3 2 1 3 4 6 7
7 7 5 4 3 4 7 8 10 13 16 18 20 20 19 19 18 16 10 4 1 1 3 3 5 6 5 5 6 7 6 5 5 6 6 6 6 5 4 2 2 2 4 5
6 7 6 5 4 8 9 6 12 15 17 19 20 20 18 18 18 16 10 5 4 3 3 3 3 3 4 3 4 4 4 4 5 5 6 5 6 6 6 4 2 1 2 3
6 6 7 8 9 11 7 13 16 17 18 19 19 19 17 17 17 15 11 6 5 5 4 4 3 2 1 2 3 3 3 3 4 4 4 4 5 5 5 5 5 4 4 3
2 4 6 7 11 12 16 16 17 17 18 19 19 19 17 16 16 15 11 6 6 6 6 5 5 4 2 3 3 3 2 2 4 4 4 3 3 3 3 4 5 10 9 9
Wind_Direction
350 255 250 314 305 300 302 277 264 265 302 282 268 270 272 274 258 256 252 241 231 224 212 196 200 209 219 224 231 226 223 211 197 184 188 194 201 210 208 206 202 197 204 208
240 264 325 316 314 299 285 280 276 277 295 291 283 277 275 271 266 262 263 251 233 218 198 190 185 175 172 162 185 201 199 194 189 189 191 200 199 209 207 204 205 201 201 203
245 254 319 295 269 262 263 268 283 296 303 279 287 276 264 263 259 254 251 254 245 216 205 184 175 162 152 140 136 151 167 174 184 181 178 176 178 189 194 202 204 203 202 202
261 219 217 239 251 255 266 271 279 288 291 283 283 287 280 276 272 263 254 240 228 204 194 177 170 160 148 127 128 140 153 165 174 179 189 195 204 211 213 210 202 202 204 204
269 247 244 247 243 222 251 304 273 269 274 279 264 270 279 272 271 279 287 246 215 192 183 171 167 156 141 129 132 136 144 155 167 187 191 207 217 223 210 208 211 207 202 207
274 257 256 252 220 198 184 205 247 242 249 257 256 259 280 281 314 322 324 255 190 179 174 167 160 160 150 141 141 144 148 147 161 180 192 205 200 204 202 208 211 206 197 203
272 232 213 233 227 199 212 232 243 229 221 245 214 258 276 329 330 316 314 266 172 173 173 173 174 177 174 168 163 160 158 159 169 185 195 196 195 212 216 214 213 212 202 201
279 261 181 206 247 241 223 238 246 264 260 243 205 248 272 327 320 314 307 188 173 178 182 186 189 187 186 183 178 175 173 171 174 188 194 201 189 213 226 223 222 220 214 207
295 280 236 253 277 271 241 227 257 265 270 272 257 252 276 280 357 21 63 150 184 194 198 202 201 198 196 193 189 186 181 179 182 189 189 201 201 211 222 218 214 218 214 191
307 293 289 299 257 224 274 285 230 240 254 252 244 243 249 343 29 36 43 87 200 217 219 214 211 207 204 198 193 189 188 184 186 189 189 187 204 203 215 212 205 207 197 181
296 283 282 274 272 284 234 228 242 251 264 269 262 197 62 33 25 19 15 5 330 283 257 237 223 217 208 199 193 189 189 190 188 189 187 192 195 197 198 205 200 199 195 188
314 290 280 280 322 318 297 295 268 257 247 254 274 269 65 23 2 355 346 341 326 308 292 267 247 228 213 204 197 193 192 191 190 190 191 197 192 193 204 203 200 200 196 199
324 292 292 266 175 133 331 345 302 290 272 249 249 259 68 338 325 328 327 320 311 299 288 276 256 237 223 211 201 196 195 192 187 188 192 194 197 202 209 209 203 205 203 202
317 289 286 294 322 323 309 303 295 281 271 268 264 296 319 326 326 321 314 306 300 293 287 281 270 252 230 217 204 197 190 188 186 191 196 201 204 204 210 212 209 211 209 208
338 303 309 307 307 305 299 294 286 276 276 284 310 314 331 338 324 312 304 298 291 285 282 279 274 263 228 210 198 188 183 182 187 196 203 206 207 203 210 212 213 214 215 218
321 298 303 299 300 302 294 294 278 269 288 309 326 333 348 327 321 317 315 308 294 290 291 290 284 262 211 191 181 174 178 183 192 201 208 206 213 204 208 213 217 212 212 218
294 289 295 294 304 294 278 25 50 78 55 28 9 345 334 332 332 338 345 340 325 320 330 345 26 83 122 137 150 159 167 172 196 205 206 208 212 209 209 210 210 207 210 216
277 287 279 281 287 251 82 49 30 100 62 31 9 353 343 331 316 24 16 360 356 5 28 56 76 84 86 93 101 106 114 138 182 213 220 216 220 216 211 209 206 207 211 206
248 282 281 276 267 238 73 14 343 292 65 20 1 354 350 341 335 44 21 9 9 26 50 65 74 82 79 79 84 90 88 83 74 46 334 253 228 223 216 212 209 207 207 205
344 271 299 318 288 51 16 339 323 261 86 6 354 352 351 351 359 357 351 353 16 40 57 70 78 80 77 76 82 85 80 71 57 39 21 3 271 237 228 223 217 209 209 210
352 355 4 356 313 60 5 340 348 45 355 335 339 343 344 345 330 317 326 347 22 42 51 66 77 77 77 82 84 80 71 60 47 38 37 34 18 296 250 229 217 210 208 210
355 359 11 358 348 351 348 352 2 336 324 326 330 334 335 330 327 329 333 338 28 60 61 69 84 84 79 78 80 77 68 57 47 40 37 33 28 22 31 210 203 204 201 201
11 7 345 336 317 283 301 297 302 319 321 322 324 326 327 327 329 331 326 297 209 122 93 94 105 102 91 71 61 67 64 42 35 35 35 31 35 40 39 53 128 173 189 192
357 355 330 316 302 324 320 321 321 321 316 314 315 317 321 323 324 325 319 279 222 185 150 147 151 132 102 69 42 36 30 13 17 27 28 33 33 47 53 50 64 131 168 184
338 339 327 309 326 328 318 323 322 318 315 313 312 312 314 317 319 322 314 280 232 197 179 184 192 178 99 8 354 5 355 344 3 21 32 46 52 54 60 58 37 31 55 35
18 327 315 305 319 313 309 316 319 317 315 315 313 311 313 314 316 320 315 288 232 205 188 192 206 223 260 321 347 12 16 341 357 24 32 39 59 70 80 93 81 49 55 60